TimePDT,TemperatureF,Dew PointF,Humidity,Sea Level PressureIn,VisibilityMPH,Wind Direction,Wind SpeedMPH,Gust SpeedMPH,PrecipitationIn,Events,Conditions,WindDirDegrees,DateUTC
12:53 AM,66.9,63.0,87,29.92,10.0,Calm,Calm,-,N/A,,Clear,0,2013-08-10 07:53:00
1:53 AM,64.0,62.1,93,29.93,10.0,Calm,Calm,-,N/A,,Clear,0,2013-08-10 08:53:00
2:53 AM,63.0,62.1,97,29.93,10.0,Calm,Calm,-,N/A,,Clear,0,2013-08-10 09:53:00
3:53 AM,63.0,61.0,93,29.94,10.0,Calm,Calm,-,N/A,,Clear,0,2013-08-10 10:53:00
4:53 AM,61.0,60.1,97,29.95,10.0,Calm,Calm,-,N/A,,Clear,0,2013-08-10 11:53:00
5:53 AM,59.0,57.9,96,29.97,10.0,Calm,Calm,-,N/A,,Clear,0,2013-08-10 12:53:00
6:53 AM,61.0,60.1,97,29.99,7.0,SSE,4.6,-,N/A,,Clear,150,2013-08-10 13:53:00
7:53 AM,62.1,59.0,90,30.00,10.0,SW,4.6,-,N/A,,Partly Cloudy,220,2013-08-10 14:53:00
8:53 AM,64.0,57.9,80,30.01,10.0,WSW,4.6,-,N/A,,Clear,240,2013-08-10 15:53:00
9:53 AM,68.0,57.9,70,30.01,10.0,Variable,4.6,-,N/A,,Partly Cloudy,0,2013-08-10 16:53:00
10:53 AM,70.0,57.9,65,30.01,10.0,SSE,3.5,-,N/A,,Partly Cloudy,160,2013-08-10 17:53:00
11:53 AM,73.0,57.9,59,30.00,10.0,Variable,4.6,-,N/A,,Clear,0,2013-08-10 18:53:00
12:53 PM,73.9,57.9,57,29.99,10.0,Calm,Calm,-,N/A,,Scattered Clouds,0,2013-08-10 19:53:00
1:53 PM,78.1,57.9,50,29.98,10.0,SW,4.6,-,N/A,,Scattered Clouds,220,2013-08-10 20:53:00
2:53 PM,79.0,57.9,48,29.97,10.0,SW,4.6,-,N/A,,Partly Cloudy,220,2013-08-10 21:53:00
3:53 PM,77.0,57.9,52,29.99,10.0,South,4.6,-,N/A,,Partly Cloudy,190,2013-08-10 22:53:00
4:53 PM,77.0,60.1,56,29.99,10.0,SE,3.5,-,0.00,,Partly Cloudy,130,2013-08-10 23:53:00
5:53 PM,75.9,60.1,58,29.98,10.0,South,10.4,-,0.00,,Scattered Clouds,190,2013-08-11 00:53:00
6:53 PM,73.9,59.0,59,29.98,10.0,SW,5.8,-,N/A,,Clear,230,2013-08-11 01:53:00
7:53 PM,70.0,59.0,68,30.00,10.0,Calm,Calm,-,N/A,,Clear,0,2013-08-11 02:53:00
8:53 PM,68.0,57.9,70,30.02,10.0,Calm,Calm,-,N/A,,Clear,0,2013-08-11 03:53:00
9:53 PM,64.9,57.9,78,30.03,10.0,SW,4.6,-,N/A,,Clear,220,2013-08-11 04:53:00
10:53 PM,62.1,57.0,84,30.05,10.0,Calm,Calm,-,N/A,,Clear,0,2013-08-11 05:53:00
11:53 PM,60.1,55.9,86,30.04,10.0,Calm,Calm,-,N/A,,Clear,0,2013-08-11 06:53:00